Location: Cutler
(25.6150°N, 80.3110°W)
Time: 03:17:18
(UTC-05:00)

Hubble Space Telescope - Pass Details

Date: 18 November 2017
Orbit: 537 x 541 km, 28.5° (Epoch: 20 November)

Event Time Altitude Azimuth Distance (km) Brightness Sun altitude
Exits shadow 06:04:13 10° 272° (W) 1,764 2.8 -8.7°
Maximum altitude 06:08:15 63° 353° (N) 599 0.9 -7.8°
Drops below altitude 10° 06:12:20 10° 75° (ENE) 1,782 4.4 -7.0°
Sets 06:14:37 0° 78° (ENE) 2,674 5.5 -6.5°
